ISIS 1 (3669 NORAD) Tracking and Keplerian Element Data

This shows tracking and keplerian element data for the satellite.

Feedback or suggestion? Click here.




ElementValue
Catalog3669
NameISIS 1
Epoch Orbit33951
Epoch Day353.87530712
Epoch Year2025
RAAN164.0157
Inclination88.4489
Eccentricity0.1706943
Argument of Perigee250.275
Mean Anonmoly90.6831
Mean Motion11.30357402
Decay Rate1.62E-06
L11 03669U 69009A 25353.87530712 .00000162 00000+0 11748-3 0 9991
L22 03669 88.4489 164.0157 1706943 250.2750 90.6831 11.30357402339516



Live tracking and technical data element details for ISIS 1 (NORAD 3669). ISIS 1 can be tracked NOW for your location showing map with azimuth and elevation plus other details from your city location.







IsCatalogInMostPopularTable: catalog: 3669, numindb: 483
Update: records affected: 1



GetName: 3669 ISIS 1

Hit Count: updated at: Sat, 07 Mar 2026 03:29:48 GMT